# Land Stadt Wetter Temperatur Luftdruck Luftfeuchtigkeit Sichtweite Windgeschwindigkeit Windrichtung Ortszeit
1 ru Werchojansk Clouds -42 1024 97 10000 3 252 02.08.2018 14:22
2 mn Ulaanbaatar Clear -39 1031 60 6000 0 0 02.08.2018 14:23
3 ru Jakutsk Snow -32 1023 67 10000 4 130 02.08.2018 14:22
4 mn Uliastai Clouds -29 1048 74 10000 8 79 02.08.2018 14:23
5 ru Surgut Clear -17 1031 68 10000 26 190 02.08.2018 14:23
6 ru Anadyr Snow -13 996 78 9000 22 20 02.08.2018 14:23
7 us Fairbanks Clouds -13 1001 82 10000 11 30 02.08.2018 14:23
8 ca Montreal Snow -11 1005 82 3219 13 140 02.08.2018 14:22
9 ru Amderma Snow -10 995 92 247 29 226 02.08.2018 14:23
10 af Kabul Clear -9 1025 72 10000 7 226 02.08.2018 14:21
11 fi Rovaniemi Snow -9 1007 92 10000 9 50 02.08.2018 14:21
12 ru Moskau Clouds -7 1029 89 10000 14 184 02.08.2018 14:22
13 no Hammerfest Clouds -5 1004 63 10000 13 360 02.08.2018 14:22
14 cn Peking Clouds -3 1036 24 10000 6 119 02.08.2018 14:23
15 us Nome Snow -3 1000 93 10000 22 110 02.08.2018 14:23
16 ua Kiew Clouds -1 1018 72 10000 2 210 02.08.2018 14:21
17 no Oslo Clouds -1 1014 95 10000 2 326 02.08.2018 14:23
18 us Chicago Clear 0 1024 78 10000 9 150 02.08.2018 14:23
19 fi Helsinki Clouds 0 1013 79 10000 16 199 02.08.2018 14:21
20 se Stockholm Snow 1 1010 95 4700 9 130 02.08.2018 14:23
21 gl Nuuk Clouds 1 975 60 10000 32 50 02.08.2018 14:22
22 us New York Clear 1 1027 38 10000 22 340 02.08.2018 14:22
23 us Denver Clouds 3 1015 49 10000 2 0 02.08.2018 14:21
24 cn Lhasa Clouds 3 1011 45 10000 7 186 02.08.2018 14:22
25 ch Andermatt Rain 3 1032 90 6753 13 327 02.08.2018 14:23
26 tr Ankara Clouds 4 1021 71 10000 6 220 02.08.2018 14:23
27 bg Warna Clouds 4 1026 75 10000 6 80 02.08.2018 14:21
28 tr Istanbul Clouds 4 1024 87 10000 11 40 02.08.2018 14:23
29 bg Sofia Clouds 5 1025 82 9000 17 110 02.08.2018 14:21
30 de München Rain 5 1028 94 10000 6 270 02.08.2018 14:21
31 de Hiddensee Clouds 5 1027 85 10000 30 161 02.08.2018 14:21
32 kr Seoul Mist 5 1023 84 10000 9 340 02.08.2018 14:21
33 de Flensburg Clouds 6 1021 95 10000 16 257 02.08.2018 14:21
34 de Torfhaus Rain 6 1024 100 10000 19 215 02.08.2018 14:22
35 is Reykjavik Clouds 6 1003 93 10000 15 140 02.08.2018 14:22
36 in Jagatsukh Clouds 6 1012 99 27 21 203 02.08.2018 14:22
37 de Helgoland Rain 7 1020 95 10000 40 199 02.08.2018 14:22
38 de Dresden Clouds 7 1017 93 10000 13 280 02.08.2018 14:22
39 de Hamburg Drizzle 7 1021 96 10000 22 290 02.08.2018 14:21
40 de Nürnberg Clouds 7 1024 88 10000 13 270 02.08.2018 14:21
41 gb London Clouds 7 1030 88 10000 11 220 02.08.2018 14:22
42 ad Andorra la Vella Clouds 7 1034 64 10000 14 9 02.08.2018 14:22
43 es Madrid Clear 8 1033 78 10000 4 0 02.08.2018 14:23
44 fr Paris Fog 8 1032 97 6000 11 230 02.08.2018 14:22
45 de Magdeburg Clouds 8 1021 88 10000 13 283 02.08.2018 14:22
46 bo Potisi Clouds 8 1018 80 10000 3 298 02.08.2018 14:22
47 de Emden Clouds 8 1023 94 10000 18 250 02.08.2018 14:21
48 it Mailand Mist 8 1024 86 4000 2 0 02.08.2018 14:21
49 ch Bern Rain 8 1032 88 10000 6 246 02.08.2018 14:23
50 de Kassel Clouds 8 1023 87 10000 20 290 02.08.2018 14:21
51 de Berlin Clouds 8 997 90 10000 19 260 02.08.2018 14:21
52 at Innsbruck Clouds 8 1028 81 10000 9 70 02.08.2018 14:23
53 ar Ushuaia Clouds 9 1005 66 10000 13 190 02.08.2018 14:22
54 de Köln Clouds 9 1026 83 10000 17 270 02.08.2018 14:21
55 de Trier Clouds 9 1028 92 10000 13 250 02.08.2018 14:21
56 cn Shanghai Clouds 9 1021 93 10000 14 50 02.08.2018 14:21
57 tr Alanya Clear 9 1020 81 10000 16 308 02.08.2018 14:22
58 de Stuttgart Rain 9 1026 90 10000 11 250 02.08.2018 14:22
59 de Bremen Rain 9 1020 91 10000 26 180 02.08.2018 14:22
60 de Hannover Clouds 10 1026 82 10000 20 250 02.08.2018 14:21
61 de Frankfurt Clouds 10 1028 82 10000 15 200 02.08.2018 14:22
62 it Rom Mist 10 1020 77 5000 6 40 02.08.2018 14:23
63 de Braunschweig Clouds 10 1024 72 10000 22 260 02.08.2018 14:21
64 pe Cusco Clouds 10 1030 93 10000 0 0 02.08.2018 14:23
65 gb Glasgow Clouds 11 1022 82 10000 20 240 02.08.2018 14:21
66 gb Manchester Clouds 11 1025 90 10000 24 280 02.08.2018 14:21
67 de Oberstdorf Clouds 11 1029 72 10000 5 133 02.08.2018 14:21
68 de Freiburg Clouds 11 1030 85 10000 9 221 02.08.2018 14:22
69 bo La Paz Fog 11 1038 82 10000 9 120 02.08.2018 14:22
70 gr Athen Clouds 11 1021 76 10000 14 42 02.08.2018 14:22
71 nz Wellington Clouds 11 1020 76 10000 6 50 02.08.2018 14:23
72 mx Mexiko Stadt Clear 12 1015 46 10000 2 0 02.08.2018 14:21
73 fr Bordeaux Clouds 12 1035 76 10000 7 200 02.08.2018 14:21
74 ie Dublin Rain 13 1017 82 10000 33 220 02.08.2018 14:21
75 us Tucson Clouds 13 1021 34 10000 7 136 02.08.2018 14:21
76 at Wien Clouds 13 1029 57 10000 6 10 02.08.2018 14:22
77 es Barcelona Clear 13 1027 71 10000 10 266 02.08.2018 14:22
78 ma Marrakesch Clear 14 1028 62 10000 6 140 02.08.2018 14:23
79 us Los Angeles Rain 14 1023 93 4828 22 150 02.08.2018 14:22
80 pt Lissabon Clear 15 1037 82 10000 6 0 02.08.2018 14:22
81 jp Nagasaki Clouds 15 1018 93 10000 3 350 02.08.2018 14:21
82 fr Nizza Clear 16 1023 61 10000 13 330 02.08.2018 14:22
83 ar Esquel Clouds 16 1010 83 10000 9 261 02.08.2018 14:22
84 et Addis Abeba Clouds 16 1016 77 10000 5 150 02.08.2018 14:23
85 es Tarifa Clear 16 1029 73 10000 25 78 02.08.2018 14:21
86 sa Riad Clear 16 1019 33 10000 22 135 02.08.2018 14:21
87 es Sevilla Clear 16 1029 71 10000 13 50 02.08.2018 14:22
88 es Palma de Mallorca Clouds 16 1026 75 10000 2 45 02.08.2018 14:22
89 us Miami Clouds 17 1011 96 10000 13 330 02.08.2018 14:23
90 us Death Valley Clouds 17 1017 70 10000 12 192 02.08.2018 14:22
91 ae Dubai Clear 17 1015 77 10000 11 180 02.08.2018 14:21
92 jp Tokio Clouds 17 1016 76 10000 20 60 02.08.2018 14:22
93 ma Casablanca Clouds 17 1027 88 8000 7 40 02.08.2018 14:23
94 it Palermo Clouds 18 1011 72 10000 3 342 02.08.2018 14:22
95 cl Santiago Clouds 18 984 71 10000 2 255 02.08.2018 14:23
96 us Las Vegas Clouds 19 1015 41 10000 11 220 02.08.2018 14:21
97 qa Doha Clear 19 1016 59 10000 22 330 02.08.2018 14:23
98 iq Bagdad Clouds 19 1017 52 10000 17 320 02.08.2018 14:22
99 au Sydney Rain 20 1018 74 10000 9 143 02.08.2018 14:22
100 eg Kairo Clouds 20 1019 34 10000 20 90 02.08.2018 14:22
101 es Las Palmas de Gran Canaria Clouds 20 1026 80 10000 15 51 02.08.2018 14:21
102 uy Montevideo Clouds 21 1013 94 10000 15 180 02.08.2018 14:22
103 za Kapstadt Clear 21 1010 63 10000 11 340 02.08.2018 14:22
104 bs Nassau Clouds 21 1018 83 10000 20 340 02.08.2018 14:22
105 mx Veracruz Clouds 22 1021 68 10000 9 80 02.08.2018 14:21
106 do Santo Domingo Clear 23 1017 90 10000 7 343 02.08.2018 14:21
107 ar Buenos Aires Clouds 23 1011 83 10000 13 80 02.08.2018 14:22
108 us Honolulu Clouds 23 1021 51 10000 37 50 02.08.2018 14:22
109 vn Hanoi Clouds 23 1009 88 10000 14 153 02.08.2018 14:21
110 br Rio de Janeiro Clouds 24 1006 94 10000 6 350 02.08.2018 14:22
111 mg Antananarivo Clouds 24 1018 61 10000 13 120 02.08.2018 14:21
112 fj Suva Clouds 25 1007 100 10000 0 0 02.08.2018 14:21
113 ck Avarua Clouds 25 1011 73 10000 11 110 02.08.2018 14:22
114 br Manaus Clear 26 1011 73 10000 6 60 02.08.2018 14:21
115 sb Honiara Clouds 26 1009 89 10000 6 280 02.08.2018 14:22
116 pg Port Moresby Clouds 26 1010 87 10000 10 309 02.08.2018 14:21
117 in Mumbai Smoke 26 1013 57 2500 9 80 02.08.2018 14:22
118 ec San Cristobal Rain 27 1011 85 10000 19 246 02.08.2018 14:22
119 ph Manila Clouds 27 1016 70 10000 11 120 02.08.2018 14:21
120 au Perth Clear 28 1005 41 10000 15 50 02.08.2018 14:21
121 th Bangkok Clouds 30 1010 76 10000 19 175 02.08.2018 14:21
122 ke Nairobi Clouds 30 1018 27 10000 22 80 02.08.2018 14:22
123 id Jakarta Haze 31 1011 87 5000 6 40 02.08.2018 14:22
124 au Darwin Clouds 32 1010 75 10000 22 320 02.08.2018 14:22
125 mv Male Clouds 32 1013 70 7000 26 80 02.08.2018 14:23
126 in Nagpur Haze 33 1012 27 5000 9 190 02.08.2018 14:21
127 au Alice Springs Clouds 34 1010 27 10000 35 170 02.08.2018 14:21
128 cd Kisangani Clouds 36 1008 38 10000 6 175 02.08.2018 14:23